Location: Holyhead Bay
(53.3667°N, 4.6667°W)
Time: 06:40:14
(UTC+00:00)

Cosmos 1766 Rocket - Pass Details

Date: 24 November 2020
Orbit: 604 x 633 km, 82.5° (Epoch: 23 January)

Event Time Altitude Azimuth Distance (km) Brightness Sun altitude
Rises 16:42:08 0° 346° (NNW) 2,932 6.9 -4.9°
Reaches altitude 10° 16:44:24 10° 343° (NNW) 2,015 6.1 -5.2°
Maximum altitude 16:48:49 62° 264° (W) 705 4.2 -5.8°
Drops below altitude 10° 16:53:09 10° 184° (S) 1,981 6.6 -6.4°
Sets 16:55:22 0° 181° (S) 2,877 7.4 -6.7°
